Flag for Canada Weather past 2 weeks in Stonewall, Manitoba, Canada

Now
70 °F

Passing clouds.


Feels Like: 70 °F
Forecast: 61 / 81 °F
Wind: 8 mph from Southwest

Location: Winnipeg Int. Airportman.

Current Time: Jul 2, 2015 at 12:12:02 PM

Latest Report: Jul 2, 2015 at 11:00 AM


Visibility: 6 mi

Pressure: 29.91 "Hg

Humidity: 78%

Dew point: 63 °F

Location of StonewallLocation

Historic Weather in Stonewall — Graph

°F

Stonewall temperature yesterday

Maximum temperature yesterday: 77 °F (at 4:00 PM)
Minimum temperature yesterday: 57 °F (at 6:00 AM)
Average temperature yesterday: 68 °F

Past Weeks' High & Low Weather Summary

 TemperatureHumidityPressure
High82 °F (Jun 28, 5:00 PM)100% (Jun 18, 5:00 AM)30.23 "Hg (Jun 18, 5:00 AM)
Low41 °F (Jun 18, 5:00 AM)35% (Jun 18, 5:00 PM)29.70 "Hg (Jun 22, 4:00 AM)
Average65 °F75%29.93 "Hg
* Reported Jun 17 11:00 AM — Jul 2 11:00 AM, Stonewall, Weather by CustomWeather, © 2015

Note: Actual official high and low records may vary slightly from our data, if they occured in-between our weather recording intervals... More about our weather records

Advertising

Stonewall weather history for previous 24 hours

 ConditionsComfort  
Time TempWeatherWind HumidityBarometerVisibility
11:00 AM
Thu, Jul 2
70 °FPassing clouds.8 mph78%29.91 "Hg6 mi
10:00 AM68 °FPassing clouds.8 mph83%29.92 "Hg6 mi
9:00 AM66 °FSnow flurries. Passing clouds.7 mph83%29.92 "Hg6 mi
8:00 AM63 °FPassing clouds.5 mph88%29.93 "Hg6 mi
7:00 AM61 °FPassing clouds.5 mph94%29.93 "Hg6 mi
6:00 AM61 °FPassing clouds.5 mph94%29.91 "Hg6 mi
5:00 AM59 °FClear.8 mph100%29.91 "Hg10 mi
4:00 AM59 °FClear.6 mph94%29.91 "Hg10 mi
3:00 AM59 °FClear.3 mph94%29.91 "Hg10 mi
2:00 AM64 °FPassing clouds.7 mph83%29.92 "Hg10 mi
1:00 AM64 °FPassing clouds.7 mph88%29.93 "Hg10 mi
12:00 AM66 °FPassing clouds.7 mph83%29.93 "Hg8 mi
11:00 PM
Wed, Jul 1
68 °FPassing clouds.5 mph78%29.93 "Hg10 mi
10:00 PM70 °FOvercast.5 mph73%29.92 "Hg8 mi
9:00 PM70 °FOvercast.6 mph78%29.92 "Hg12 mi
8:00 PM73 °FOvercast.5 mph69%29.92 "Hg15 mi
7:00 PM75 °FOvercast.6 mph65%29.92 "Hg10 mi
6:00 PM75 °FOvercast.8 mph61%29.93 "Hg10 mi
5:00 PM75 °FMostly cloudy.7 mph61%29.93 "Hg8 mi
4:00 PM77 °FMostly cloudy.7 mph61%29.94 "Hg8 mi
3:00 PM75 °FPartly sunny.6 mph65%29.94 "Hg10 mi
2:00 PM75 °FPartly sunny.7 mph65%29.94 "Hg10 mi
1:00 PM75 °FPartly sunny.8 mph61%29.94 "Hg12 mi
12:00 PM73 °FPartly sunny.6 mph65%29.94 "Hg9 mi
Weather by CustomWeather, © 2015

See weather overviewHow to use our weather pages